This is the latest recevied weather packets stored in our database for station/object KC4JIR. If no packets are shown the sender has not sent any weather packets the latest 10 day(s).
| Time | Temp. | Humidity | Pressure | Rain* | Wind** | Luminosity | Snow |
|---|---|---|---|---|---|---|---|
| 1777386322 | 16.11° C | 94% | 1023 hPa | 0 mm | - | 27 W/m² | - |
| 1777386020 | 16.11° C | 94% | 1023.2 hPa | 0 mm | - | 10 W/m² | - |
| 1777385716 | 16.11° C | 93% | 1023.2 hPa | 0 mm | - | 8 W/m² | - |
| 1777385414 | 16.11° C | 92% | 1022.3 hPa | 0 mm | - | 22 W/m² | - |
| 1777384806 | 16.11° C | 91% | 1021 hPa | 0 mm | - | 215 W/m² | - |
| 1777384503 | 16.11° C | 91% | 1020.7 hPa | 0 mm | - | 215 W/m² | - |
| 1777384197 | 16.11° C | 91% | 1020.5 hPa | 0 mm | - | 215 W/m² | - |
| 1777383894 | 16.11° C | 93% | 1020.4 hPa | 0 mm | - | 144 W/m² | - |
| 1777380855 | 13.89° C | 96% | 1019.7 hPa | 0 mm | - | 67 W/m² | - |
| 1777380552 | 13.89° C | 96% | 1019.5 hPa | 0 mm | - | 67 W/m² | - |
| 1777380249 | 13.89° C | 96% | 1019.3 hPa | 0 mm | - | 67 W/m² | - |
| 1777359603 | 13.33° C | 94% | 1017.8 hPa | 0 mm | - | 0 W/m² | - |
| 1777359299 | 13.33° C | 94% | 1017.7 hPa | 0 mm | - | 0 W/m² | - |
| 1777358997 | 13.33° C | 94% | 1017.8 hPa | 0 mm | - | 0 W/m² | - |
| 1777358695 | 13.33° C | 93% | 1017.8 hPa | 0 mm | - | 0 W/m² | - |
| 1777358392 | 13.33° C | 93% | 1017.7 hPa | 0 mm | - | 0 W/m² | - |
| 1777358090 | 13.33° C | 93% | 1018 hPa | 0 mm | - | 0 W/m² | - |
| 1777357788 | 13.33° C | 92% | 1018 hPa | 0 mm | - | 0 W/m² | - |
| 1777357484 | 14.44° C | 91% | 1018.2 hPa | 0 mm | - | 0 W/m² | - |
| 1777357181 | 14.44° C | 91% | 1018.6 hPa | 0 mm | - | 0 W/m² | - |
| 1777356878 | 14.44° C | 91% | 1018.3 hPa | 0 mm | - | 0 W/m² | - |
| 1777356575 | 13.89° C | 90% | 1018.4 hPa | 0 mm | - | 0 W/m² | - |
| 1777356272 | 13.89° C | 90% | 1018.4 hPa | 0 mm | - | 0 W/m² | - |
| 1777355968 | 14.44° C | 90% | 1018.6 hPa | 0 mm | - | 0 W/m² | - |
| 1777355666 | 14.44° C | 89% | 1018.4 hPa | 0 mm | - | 0 W/m² | - |
* Rain latest hour (hover to see other rain measurements)
** Current wind speed in m/s (hover to see current wind gust speed)